| time (UTC) | temp F | wind direction | speed knots | gust knots | rain 1hr in | rain 24hr in | rain mn in | humidity % | barometer mb |
| 20260902070107 | 61 | 193 | 1.7 | 4.3 | 0.00 | 0.00 | 0.00 | 80 | 1016.6 |
| 20260902065548 | 61 | 178 | 1.7 | 4.3 | 0.00 | 0.00 | 0.00 | 80 | 1016.5 |
| 20260902065046 | 61 | 144 | 1.7 | 4.3 | 0.00 | 0.00 | 0.00 | 80 | 1016.5 |
| 20260902064601 | 61 | 240 | 1.7 | 4.3 | 0.00 | 0.00 | 0.00 | 79 | 1016.5 |
| 20260902064044 | 61 | 121 | 1.7 | 5.2 | 0.00 | 0.00 | 0.00 | 79 | 1016.4 |
| 20260902063546 | 61 | 220 | 1.7 | 5.2 | 0.00 | 0.00 | 0.00 | 79 | 1016.5 |
| 20260902063110 | 61 | 238 | 1.7 | 7.0 | 0.00 | 0.00 | 0.00 | 79 | 1016.5 |
| 20260902062545 | 61 | 148 | 1.7 | 7.0 | 0.00 | 0.00 | 0.00 | 79 | 1016.5 |
| 20260902062046 | 61 | 232 | 2.6 | 7.0 | 0.00 | 0.00 | 0.00 | 79 | 1016.6 |
| 20260902061614 | 61 | 171 | 2.6 | 7.8 | 0.00 | 0.00 | 0.00 | 79 | 1016.7 |
| 20260902061052 | 61 | 164 | 2.6 | 7.8 | 0.00 | 0.00 | 0.00 | 80 | 1016.6 |
| 20260902060544 | 61 | 174 | 2.6 | 5.2 | 0.00 | 0.00 | 0.00 | 80 | 1016.8 |
| 20260902060055 | 61 | 229 | 1.7 | 6.1 | 0.00 | 0.00 | 0.00 | 81 | 1016.7 |
| 20260902055547 | 61 | 153 | 2.6 | 6.1 | 0.00 | 0.00 | 0.00 | 81 | 1016.7 |
| 20260902055045 | 61 | 207 | 1.7 | 4.3 | 0.00 | 0.00 | 0.00 | 81 | 1016.8 |
| 20260902054603 | 61 | 139 | 1.7 | 5.2 | 0.00 | 0.00 | 0.00 | 81 | 1016.8 |
| 20260902054045 | 61 | 155 | 1.7 | 5.2 | 0.00 | 0.00 | 0.00 | 81 | 1017.0 |
| 20260902053548 | 61 | 175 | 1.7 | 3.5 | 0.00 | 0.00 | 0.00 | 81 | 1017.0 |
| 20260902053106 | 61 | 158 | 0.9 | 5.2 | 0.00 | 0.00 | 0.00 | 81 | 1017.0 |
| 20260902052546 | 61 | 172 | 1.7 | 5.2 | 0.00 | 0.00 | 0.00 | 80 | 1017.1 |
| 20260902052045 | 61 | 139 | 1.7 | 5.2 | 0.00 | 0.00 | 0.00 | 80 | 1017.1 |
| 20260902051607 | 61 | 140 | 1.7 | 6.1 | 0.00 | 0.00 | 0.00 | 80 | 1017.2 |
| 20260902051046 | 61 | 164 | 1.7 | 6.1 | 0.00 | 0.00 | 0.00 | 80 | 1017.2 |
| 20260902050546 | 62 | 147 | 2.6 | 8.7 | 0.00 | 0.00 | 0.00 | 80 | 1017.2 |
| 20260902050057 | 62 | 279 | 2.6 | 8.7 | 0.00 | 0.00 | 0.00 | 79 | 1017.1 |
| 20260902045545 | 62 | 165 | 1.7 | 8.7 | 0.00 | 0.00 | 0.00 | 79 | 1017.2 |
| 20260902045045 | 62 | 136 | 1.7 | 5.2 | 0.00 | 0.00 | 0.00 | 79 | 1017.1 |
| 20260902044607 | 62 | 201 | 2.6 | 5.2 | 0.00 | 0.00 | 0.00 | 79 | 1017.2 |
| 20260902044045 | 62 | 142 | 2.6 | 6.1 | 0.00 | 0.00 | 0.00 | 79 | 1017.2 |
| 20260902043545 | 62 | 170 | 2.6 | 10.4 | 0.00 | 0.00 | 0.00 | 79 | 1017.2 |
| 20260902043101 | 62 | 186 | 3.5 | 10.4 | 0.00 | 0.00 | 0.00 | 79 | 1017.2 |
| 20260902042548 | 62 | 142 | 2.6 | 6.1 | 0.00 | 0.00 | 0.00 | 78 | 1017.1 |
| 20260902042045 | 62 | 183 | 1.7 | 6.1 | 0.00 | 0.00 | 0.00 | 78 | 1017.0 |
| 20260902041555 | 62 | 154 | 2.6 | 6.1 | 0.00 | 0.00 | 0.00 | 78 | 1017.0 |
| 20260902041044 | 62 | 193 | 1.7 | 6.1 | 0.00 | 0.00 | 0.00 | 77 | 1017.0 |
| 20260902040548 | 62 | 143 | 2.6 | 6.1 | 0.00 | 0.00 | 0.00 | 77 | 1016.9 |
| 20260902040111 | 62 | 233 | 1.7 | 6.1 | 0.00 | 0.00 | 0.00 | 77 | 1016.9 |
| 20260902035548 | 62 | 134 | 2.6 | 6.1 | 0.00 | 0.00 | 0.00 | 76 | 1016.9 |
| 20260902035044 | 63 | 118 | 2.6 | 6.1 | 0.00 | 0.00 | 0.00 | 76 | 1016.7 |
| 20260902034604 | 63 | 256 | 2.6 | 7.0 | 0.00 | 0.00 | 0.00 | 76 | 1016.7 |
| 20260902034045 | 63 | 209 | 1.7 | 7.0 | 0.00 | 0.00 | 0.00 | 75 | 1016.8 |
| 20260902033545 | 63 | 236 | 1.7 | 6.1 | 0.00 | 0.00 | 0.00 | 74 | 1016.8 |
| 20260902033101 | 63 | 119 | 0.9 | 6.1 | 0.00 | 0.00 | 0.00 | 74 | 1016.7 |
| 20260902032547 | 63 | 269 | 2.6 | 6.1 | 0.00 | 0.00 | 0.00 | 74 | 1016.6 |
| 20260902032048 | 64 | 200 | 1.7 | 8.7 | 0.00 | 0.00 | 0.00 | 73 | 1016.6 |
| 20260902031624 | 64 | 297 | 3.5 | 8.7 | 0.00 | 0.00 | 0.00 | 73 | 1016.6 |
| 20260902031047 | 64 | 147 | 1.7 | 7.8 | 0.00 | 0.00 | 0.00 | 73 | 1016.5 |
| 20260902030545 | 64 | 265 | 2.6 | 9.6 | 0.00 | 0.00 | 0.00 | 72 | 1016.4 |
| 20260902030107 | 64 | 249 | 4.3 | 9.6 | 0.00 | 0.00 | 0.00 | 72 | 1016.5 |
| 20260902025546 | 64 | 124 | 2.6 | 7.8 | 0.00 | 0.00 | 0.00 | 71 | 1016.4 |
| 20260902025045 | 64 | 207 | 2.6 | 7.8 | 0.00 | 0.00 | 0.00 | 70 | 1016.4 |
| 20260902024605 | 64 | 133 | 2.6 | 7.8 | 0.00 | 0.00 | 0.00 | 70 | 1016.3 |
| 20260902024047 | 65 | 252 | 3.5 | 7.8 | 0.00 | 0.00 | 0.00 | 69 | 1016.3 |
| 20260902023547 | 65 | 233 | 2.6 | 8.7 | 0.00 | 0.00 | 0.00 | 68 | 1016.2 |
| 20260902023100 | 65 | 271 | 2.6 | 8.7 | 0.00 | 0.00 | 0.00 | 67 | 1016.3 |
| 20260902022547 | 66 | 171 | 2.6 | 7.8 | 0.00 | 0.00 | 0.00 | 66 | 1016.3 |
| 20260902022047 | 66 | 250 | 3.5 | 7.8 | 0.00 | 0.00 | 0.00 | 65 | 1016.3 |
| 20260902021555 | 67 | 196 | 3.5 | 8.7 | 0.00 | 0.00 | 0.00 | 63 | 1016.2 |
| 20260902021047 | 67 | 230 | 3.5 | 8.7 | 0.00 | 0.00 | 0.00 | 62 | 1016.2 |
| 20260902020550 | 68 | 237 | 3.5 | 9.6 | 0.00 | 0.00 | 0.00 | 61 | 1016.1 |
| 20260902020051 | 68 | 117 | 3.5 | 9.6 | 0.00 | 0.00 | 0.00 | 59 | 1016.1 |
| 20260902015545 | 68 | 223 | 4.3 | 11.3 | 0.00 | 0.00 | 0.00 | 60 | 1016.1 |
| 20260902015044 | 68 | 224 | 3.5 | 11.3 | 0.00 | 0.00 | 0.00 | 58 | 1016.0 |
| 20260902014552 | 69 | 231 | 2.6 | 9.6 | 0.00 | 0.00 | 0.00 | 58 | 1015.9 |
| 20260902014047 | 69 | 271 | 1.7 | 9.6 | 0.00 | 0.00 | 0.00 | 60 | 1015.9 |
| 20260902013547 | 68 | 264 | 3.5 | 10.4 | 0.00 | 0.00 | 0.00 | 59 | 1015.8 |
| 20260902013109 | 68 | 240 | 4.3 | 10.4 | 0.00 | 0.00 | 0.00 | 59 | 1015.9 |
| 20260902012546 | 69 | 120 | 4.3 | 10.4 | 0.00 | 0.00 | 0.00 | 59 | 1015.9 |
| 20260902012046 | 69 | 178 | 4.3 | 9.6 | 0.00 | 0.00 | 0.00 | 59 | 1015.8 |
| 20260902011557 | 69 | 293 | 4.3 | 9.6 | 0.00 | 0.00 | 0.00 | 58 | 1015.7 |
| 20260902011051 | 70 | 245 | 4.3 | 9.6 | 0.00 | 0.00 | 0.00 | 56 | 1015.7 |
| 20260902010547 | 70 | 243 | 4.3 | 9.6 | 0.00 | 0.00 | 0.00 | 56 | 1015.6 |
| 20260902010059 | 71 | 231 | 3.5 | 8.7 | 0.00 | 0.00 | 0.00 | 55 | 1015.7 |
| 20260902005546 | 71 | 234 | 2.6 | 8.7 | 0.00 | 0.00 | 0.00 | 55 | 1015.6 |
| 20260902005047 | 71 | 165 | 2.6 | 8.7 | 0.00 | 0.00 | 0.00 | 56 | 1015.6 |
| 20260902004603 | 71 | 238 | 2.6 | 12.2 | 0.00 | 0.00 | 0.00 | 56 | 1015.6 |
| 20260902004047 | 70 | 255 | 4.3 | 12.2 | 0.00 | 0.00 | 0.00 | 55 | 1015.6 |
| 20260902003547 | 71 | 155 | 4.3 | 9.6 | 0.00 | 0.00 | 0.00 | 53 | 1015.5 |
| 20260902003100 | 71 | 192 | 2.6 | 9.6 | 0.00 | 0.00 | 0.00 | 55 | 1015.5 |
| 20260902002547 | 71 | 166 | 6.1 | 12.2 | 0.00 | 0.00 | 0.00 | 54 | 1015.5 |
| 20260902002046 | 71 | 232 | 6.1 | 12.2 | 0.00 | 0.00 | 0.00 | 55 | 1015.5 |
| 20260902001605 | 71 | 257 | 6.1 | 12.2 | 0.00 | 0.00 | 0.00 | 55 | 1015.6 |
| 20260902001048 | 72 | 249 | 3.5 | 8.7 | 0.00 | 0.00 | 0.00 | 53 | 1015.5 |
| 20260902000548 | 72 | 214 | 3.5 | 8.7 | 0.00 | 0.00 | 0.00 | 53 | 1015.6 |
| 20260902000101 | 72 | 175 | 5.2 | 8.7 | 0.00 | 0.00 | 0.00 | 54 | 1015.5 |
| 20260901235547 | 71 | 233 | 3.5 | 11.3 | 0.00 | 0.00 | 0.00 | 52 | 1015.5 |
| 20260901235048 | 72 | 147 | 3.5 | 11.3 | 0.00 | 0.00 | 0.00 | 52 | 1015.6 |
| 20260901234609 | 73 | 247 | 3.5 | 9.6 | 0.00 | 0.00 | 0.00 | 51 | 1015.6 |
| 20260901234045 | 73 | 193 | 3.5 | 8.7 | 0.00 | 0.00 | 0.00 | 49 | 1015.6 |
| 20260901233546 | 73 | 132 | 3.5 | 9.6 | 0.00 | 0.00 | 0.00 | 50 | 1015.6 |
| 20260901233103 | 73 | 230 | 3.5 | 9.6 | 0.00 | 0.00 | 0.00 | 49 | 1015.5 |
| 20260901232545 | 73 | 180 | 5.2 | 9.6 | 0.00 | 0.00 | 0.00 | 49 | 1015.6 |
| 20260901232048 | 73 | 157 | 4.3 | 11.3 | 0.00 | 0.00 | 0.00 | 48 | 1015.6 |
| 20260901231616 | 72 | 250 | 4.3 | 11.3 | 0.00 | 0.00 | 0.00 | 49 | 1015.7 |
| 20260901231044 | 73 | 142 | 2.6 | 8.7 | 0.00 | 0.00 | 0.00 | 50 | 1015.8 |
| 20260901230545 | 73 | 112 | 3.5 | 11.3 | 0.00 | 0.00 | 0.00 | 50 | 1015.8 |
| 20260901230105 | 73 | 255 | 4.3 | 11.3 | 0.00 | 0.00 | 0.00 | 50 | 1015.8 |
| 20260901225546 | 73 | 221 | 4.3 | 10.4 | 0.00 | 0.00 | 0.00 | 47 | 1015.9 |
| 20260901225045 | 74 | 240 | 4.3 | 10.4 | 0.00 | 0.00 | 0.00 | 47 | 1015.8 |
| 20260901224557 | 73 | 296 | 3.5 | 10.4 | 0.00 | 0.00 | 0.00 | 48 | 1015.8 |
| 20260901224044 | 73 | 229 | 3.5 | 9.6 | 0.00 | 0.00 | 0.00 | 49 | 1016.0 |
| 20260901223549 | 73 | 172 | 2.6 | 9.6 | 0.00 | 0.00 | 0.00 | 49 | 1016.0 |
| 20260901223106 | 73 | 148 | 3.5 | 10.4 | 0.00 | 0.00 | 0.00 | 48 | 1016.1 |
| 20260901222545 | 73 | 154 | 3.5 | 13.0 | 0.00 | 0.00 | 0.00 | 48 | 1016.1 |
| 20260901222045 | 72 | 120 | 3.5 | 13.0 | 0.00 | 0.00 | 0.00 | 51 | 1016.0 |
| 20260901221613 | 73 | 240 | 4.3 | 11.3 | 0.00 | 0.00 | 0.00 | 50 | 1015.9 |
| 20260901221045 | 72 | 212 | 4.3 | 11.3 | 0.00 | 0.00 | 0.00 | 51 | 1015.9 |
| 20260901220546 | 73 | 245 | 5.2 | 11.3 | 0.00 | 0.00 | 0.00 | 49 | 1016.0 |
| 20260901220104 | 73 | 257 | 3.5 | 9.6 | 0.00 | 0.00 | 0.00 | 50 | 1016.0 |
| 20260901215545 | 73 | 164 | 3.5 | 11.3 | 0.00 | 0.00 | 0.00 | 50 | 1016.1 |
| 20260901215045 | 73 | 160 | 3.5 | 12.2 | 0.00 | 0.00 | 0.00 | 51 | 1016.2 |
| 20260901214557 | 73 | 226 | 4.3 | 12.2 | 0.00 | 0.00 | 0.00 | 51 | 1016.2 |
| 20260901214046 | 73 | 231 | 7.8 | 12.2 | 0.00 | 0.00 | 0.00 | 53 | 1016.0 |
| 20260901213546 | 73 | 326 | 3.5 | 9.6 | 0.00 | 0.00 | 0.00 | 53 | 1016.2 |
| 20260901213102 | 73 | 256 | 4.3 | 9.6 | 0.00 | 0.00 | 0.00 | 53 | 1016.2 |
| 20260901212545 | 73 | 258 | 4.3 | 10.4 | 0.00 | 0.00 | 0.00 | 53 | 1016.1 |
| 20260901212045 | 74 | 222 | 3.5 | 10.4 | 0.00 | 0.00 | 0.00 | 51 | 1016.1 |
| 20260901211603 | 74 | 233 | 2.6 | 9.6 | 0.00 | 0.00 | 0.00 | 51 | 1016.1 |
| 20260901211044 | 72 | 232 | 5.2 | 10.4 | 0.00 | 0.00 | 0.00 | 54 | 1016.1 |
| 20260901210547 | 72 | 243 | 3.5 | 10.4 | 0.00 | 0.00 | 0.00 | 52 | 1016.0 |
| 20260901205545 | 73 | 205 | 3.5 | 10.4 | 0.00 | 0.00 | 0.00 | 50 | 1016.1 |
| 20260901205047 | 73 | 106 | 5.2 | 10.4 | 0.00 | 0.00 | 0.00 | 49 | 1016.0 |
| 20260901204602 | 73 | 139 | 2.6 | 8.7 | 0.00 | 0.00 | 0.00 | 49 | 1016.0 |
| 20260901204045 | 73 | 262 | 4.3 | 12.2 | 0.00 | 0.00 | 0.00 | 48 | 1016.1 |
| 20260901203548 | 73 | 158 | 4.3 | 12.2 | 0.00 | 0.00 | 0.00 | 49 | 1016.0 |
| 20260901203058 | 73 | 177 | 5.2 | 10.4 | 0.00 | 0.00 | 0.00 | 49 | 1016.1 |
| 20260901202545 | 73 | 146 | 3.5 | 10.4 | 0.00 | 0.00 | 0.00 | 51 | 1016.2 |
| 20260901202045 | 72 | 267 | 4.3 | 10.4 | 0.00 | 0.00 | 0.00 | 50 | 1016.2 |
| 20260901201603 | 72 | 302 | 2.6 | 9.6 | 0.00 | 0.00 | 0.00 | 50 | 1016.3 |
| 20260901201046 | 72 | 253 | 2.6 | 10.4 | 0.00 | 0.00 | 0.00 | 51 | 1016.3 |
| 20260901200545 | 72 | 229 | 4.3 | 10.4 | 0.00 | 0.00 | 0.00 | 50 | 1016.3 |
| 20260901200104 | 72 | 229 | 3.5 | 10.4 | 0.00 | 0.00 | 0.00 | 50 | 1016.4 |
| 20260901195545 | 71 | 244 | 3.5 | 8.7 | 0.00 | 0.00 | 0.00 | 51 | 1016.5 |
| 20260901195045 | 71 | 252 | 5.2 | 7.8 | 0.00 | 0.00 | 0.00 | 50 | 1016.5 |
| 20260901194604 | 72 | 229 | 2.6 | 7.8 | 0.00 | 0.00 | 0.00 | 48 | 1016.5 |
| 20260901194047 | 72 | 160 | 4.3 | 9.6 | 0.00 | 0.00 | 0.00 | 50 | 1016.5 |
| 20260901193547 | 71 | 199 | 2.6 | 9.6 | 0.00 | 0.00 | 0.00 | 54 | 1016.5 |
| 20260901193100 | 70 | 212 | 3.5 | 8.7 | 0.00 | 0.00 | 0.00 | 53 | 1016.6 |
| 20260901192547 | 70 | 221 | 3.5 | 7.8 | 0.00 | 0.00 | 0.00 | 54 | 1016.6 |
| 20260901192047 | 69 | 133 | 3.5 | 7.8 | 0.00 | 0.00 | 0.00 | 55 | 1016.7 |
| 20260901191550 | 69 | 222 | 2.6 | 7.0 | 0.00 | 0.00 | 0.00 | 55 | 1016.8 |
| 20260901191046 | 69 | 213 | 1.7 | 8.7 | 0.00 | 0.00 | 0.00 | 56 | 1016.7 |
| 20260901190545 | 68 | 222 | 4.3 | 8.7 | 0.00 | 0.00 | 0.00 | 56 | 1016.7 |
| 20260901185546 | 69 | 240 | 3.5 | 8.7 | 0.00 | 0.00 | 0.00 | 57 | 1016.8 |
| 20260901185045 | 68 | 124 | 3.5 | 7.8 | 0.00 | 0.00 | 0.00 | 59 | 1016.8 |
| 20260901184606 | 68 | 259 | 2.6 | 7.8 | 0.00 | 0.00 | 0.00 | 58 | 1016.9 |
| 20260901184045 | 68 | 266 | 4.3 | 7.8 | 0.00 | 0.00 | 0.00 | 58 | 1017.0 |
| 20260901183546 | 68 | 257 | 3.5 | 7.0 | 0.00 | 0.00 | 0.00 | 59 | 1017.0 |
| 20260901183114 | 67 | 122 | 3.5 | 7.0 | 0.00 | 0.00 | 0.00 | 60 | 1016.8 |
| 20260901182545 | 68 | 233 | 3.5 | 11.3 | 0.00 | 0.00 | 0.00 | 60 | 1016.8 |
| 20260901182048 | 68 | 264 | 2.6 | 11.3 | 0.00 | 0.00 | 0.00 | 61 | 1016.8 |
| 20260901181556 | 68 | 210 | 4.3 | 11.3 | 0.00 | 0.00 | 0.00 | 59 | 1016.7 |
| 20260901181046 | 69 | 236 | 2.6 | 6.1 | 0.00 | 0.00 | 0.00 | 59 | 1016.7 |
| 20260901180545 | 69 | 154 | 1.7 | 6.1 | 0.00 | 0.00 | 0.00 | 60 | 1016.7 |
| 20260901180051 | 68 | 137 | 2.6 | 10.4 | 0.00 | 0.00 | 0.00 | 61 | 1016.6 |
| 20260901175545 | 68 | 233 | 3.5 | 10.4 | 0.00 | 0.00 | 0.00 | 61 | 1016.4 |
| 20260901175045 | 68 | 218 | 4.3 | 10.4 | 0.00 | 0.00 | 0.00 | 61 | 1016.5 |
| 20260901174603 | 69 | 247 | 2.6 | 8.7 | 0.00 | 0.00 | 0.00 | 61 | 1016.4 |
| 20260901174045 | 69 | 260 | 4.3 | 8.7 | 0.00 | 0.00 | 0.00 | 60 | 1016.4 |
| 20260901173549 | 69 | 195 | 2.6 | 9.6 | 0.00 | 0.00 | 0.00 | 62 | 1016.4 |
| 20260901173139 | 68 | 233 | 3.5 | 9.6 | 0.00 | 0.00 | 0.00 | 62 | 1016.3 |
| 20260901172547 | 69 | 225 | 3.5 | 8.7 | 0.00 | 0.00 | 0.00 | 61 | 1016.4 |
| 20260901172046 | 68 | 205 | 2.6 | 7.8 | 0.00 | 0.00 | 0.00 | 62 | 1016.4 |
| 20260901171558 | 68 | 229 | 3.5 | 10.4 | 0.00 | 0.00 | 0.00 | 62 | 1016.4 |
| 20260901171046 | 68 | 155 | 4.3 | 10.4 | 0.00 | 0.00 | 0.00 | 63 | 1016.2 |
| 20260901170547 | 68 | 134 | 2.6 | 8.7 | 0.00 | 0.00 | 0.00 | 63 | 1016.1 |
| 20260901170104 | 67 | 218 | 3.5 | 8.7 | 0.00 | 0.00 | 0.00 | 63 | 1016.1 |
| 20260901165546 | 67 | 214 | 3.5 | 7.8 | 0.00 | 0.00 | 0.00 | 63 | 1016.2 |
| 20260901165043 | 67 | 130 | 3.5 | 7.8 | 0.00 | 0.00 | 0.00 | 65 | 1016.1 |
| 20260901164606 | 66 | 148 | 3.5 | 7.0 | 0.00 | 0.00 | 0.00 | 67 | 1016.0 |
| 20260901164046 | 66 | 160 | 1.7 | 8.7 | 0.00 | 0.00 | 0.00 | 68 | 1016.1 |
| 20260901163546 | 66 | 207 | 2.6 | 8.7 | 0.00 | 0.00 | 0.00 | 68 | 1016.1 |
| 20260901163116 | 65 | 155 | 3.5 | 8.7 | 0.00 | 0.00 | 0.00 | 69 | 1016.1 |
| 20260901162545 | 65 | 154 | 3.5 | 8.7 | 0.00 | 0.00 | 0.00 | 71 | 1016.1 |
| 20260901162046 | 64 | 150 | 4.3 | 10.4 | 0.00 | 0.00 | 0.00 | 71 | 1016.1 |
| 20260901161606 | 64 | 138 | 4.3 | 11.3 | 0.00 | 0.00 | 0.00 | 71 | 1016.1 |
| 20260901161044 | 64 | 153 | 4.3 | 11.3 | 0.00 | 0.00 | 0.00 | 71 | 1016.1 |
| 20260901160543 | 65 | 206 | 4.3 | 9.6 | 0.00 | 0.00 | 0.00 | 70 | 1016.0 |
| 20260901160104 | 65 | 158 | 4.3 | 9.6 | 0.00 | 0.00 | 0.00 | 70 | 1015.8 |
| 20260901155544 | 65 | 225 | 3.5 | 8.7 | 0.00 | 0.00 | 0.00 | 70 | 1015.8 |
| 20260901155044 | 65 | 160 | 2.6 | 8.7 | 0.00 | 0.00 | 0.00 | 73 | 1015.8 |
| 20260901154607 | 63 | 158 | 4.3 | 8.7 | 0.00 | 0.00 | 0.00 | 74 | 1015.8 |
| 20260901154051 | 63 | 149 | 3.5 | 7.8 | 0.00 | 0.00 | 0.00 | 75 | 1015.7 |
| 20260901153550 | 63 | 141 | 2.6 | 7.0 | 0.00 | 0.00 | 0.00 | 76 | 1015.6 |
| 20260901153102 | 63 | 174 | 2.6 | 7.0 | 0.00 | 0.00 | 0.00 | 76 | 1015.8 |
| 20260901152549 | 63 | 138 | 2.6 | 7.0 | 0.00 | 0.00 | 0.00 | 76 | 1015.7 |
| 20260901152046 | 63 | 118 | 2.6 | 7.0 | 0.00 | 0.00 | 0.00 | 77 | 1015.6 |
| 20260901151557 | 63 | 137 | 2.6 | 7.8 | 0.00 | 0.00 | 0.00 | 77 | 1015.5 |
| 20260901151049 | 63 | 254 | 3.5 | 7.8 | 0.00 | 0.00 | 0.00 | 77 | 1015.4 |
| 20260901150548 | 62 | 255 | 2.6 | 7.8 | 0.00 | 0.00 | 0.00 | 77 | 1015.3 |
| 20260901150103 | 62 | 252 | 1.7 | 6.1 | 0.00 | 0.00 | 0.00 | 77 | 1015.4 |
| 20260901145548 | 62 | 153 | 1.7 | 5.2 | 0.00 | 0.00 | 0.00 | 77 | 1015.3 |
| 20260901145052 | 62 | 142 | 1.7 | 5.2 | 0.00 | 0.00 | 0.00 | 77 | 1015.1 |
| 20260901144604 | 62 | 170 | 1.7 | 5.2 | 0.00 | 0.00 | 0.00 | 77 | 1015.2 |
| 20260901144051 | 63 | 90 | 2.6 | 6.1 | 0.00 | 0.00 | 0.00 | 76 | 1015.1 |
| 20260901143549 | 63 | 156 | 2.6 | 6.1 | 0.00 | 0.00 | 0.00 | 76 | 1015.0 |
| 20260901143106 | 63 | 143 | 2.6 | 6.1 | 0.00 | 0.00 | 0.00 | 76 | 1015.0 |
| 20260901142549 | 63 | 235 | 2.6 | 5.2 | 0.00 | 0.00 | 0.00 | 76 | 1015.0 |
| 20260901142048 | 62 | 155 | 2.6 | 5.2 | 0.00 | 0.00 | 0.00 | 77 | 1014.9 |
| 20260901141614 | 62 | 188 | 1.7 | 5.2 | 0.00 | 0.00 | 0.00 | 78 | 1014.7 |
| 20260901141049 | 61 | 155 | 1.7 | 6.1 | 0.00 | 0.00 | 0.00 | 79 | 1014.7 |
| 20260901140548 | 61 | 141 | 2.6 | 7.0 | 0.00 | 0.00 | 0.00 | 79 | 1014.6 |
| 20260901140103 | 61 | 113 | 2.6 | 7.0 | 0.00 | 0.00 | 0.00 | 79 | 1014.5 |
| 20260901135548 | 61 | 190 | 2.6 | 7.0 | 0.00 | 0.00 | 0.00 | 80 | 1014.5 |
| 20260901135045 | 61 | 127 | 1.7 | 7.0 | 0.00 | 0.00 | 0.00 | 80 | 1014.6 |
| 20260901134602 | 61 | 99 | 2.6 | 7.0 | 0.00 | 0.00 | 0.00 | 80 | 1014.4 |
| 20260901134049 | 60 | 117 | 1.7 | 7.0 | 0.00 | 0.00 | 0.00 | 80 | 1014.3 |
| 20260901133549 | 60 | 150 | 1.7 | 7.0 | 0.00 | 0.00 | 0.00 | 80 | 1014.4 |
| 20260901133055 | 60 | 158 | 2.6 | 5.2 | 0.00 | 0.00 | 0.00 | 80 | 1014.3 |
| 20260901132551 | 60 | 155 | 1.7 | 7.0 | 0.00 | 0.00 | 0.00 | 80 | 1014.3 |
| 20260901132049 | 60 | 142 | 2.6 | 7.0 | 0.00 | 0.00 | 0.00 | 81 | 1014.2 |
| 20260901131601 | 60 | 214 | 3.5 | 5.2 | 0.00 | 0.00 | 0.00 | 81 | 1014.1 |
| 20260901131050 | 60 | 141 | 1.7 | 5.2 | 0.00 | 0.00 | 0.00 | 81 | 1014.1 |
| 20260901130549 | 60 | 162 | 2.6 | 5.2 | 0.00 | 0.00 | 0.00 | 81 | 1014.1 |
| 20260901130107 | 60 | 179 | 1.7 | 3.5 | 0.00 | 0.00 | 0.00 | 82 | 1014.2 |
| 20260901125549 | 60 | 155 | 1.7 | 5.2 | 0.00 | 0.00 | 0.00 | 81 | 1014.2 |
| 20260901125049 | 60 | 179 | 2.6 | 5.2 | 0.00 | 0.00 | 0.00 | 81 | 1014.2 |
| 20260901124559 | 60 | 153 | 1.7 | 6.1 | 0.00 | 0.00 | 0.00 | 81 | 1014.1 |
| 20260901124045 | 60 | 183 | 0.0 | 7.0 | 0.00 | 0.00 | 0.00 | 81 | 1014.1 |
| 20260901123549 | 60 | 164 | 2.6 | 7.0 | 0.00 | 0.00 | 0.00 | 81 | 1014.1 |
| 20260901123106 | 60 | 243 | 1.7 | 6.1 | 0.00 | 0.00 | 0.00 | 81 | 1014.1 |
| 20260901122546 | 60 | 129 | 1.7 | 5.2 | 0.00 | 0.00 | 0.00 | 81 | 1014.0 |
| 20260901122045 | 60 | 153 | 1.7 | 5.2 | 0.00 | 0.00 | 0.00 | 81 | 1013.9 |
| 20260901121605 | 60 | 182 | 1.7 | 4.3 | 0.00 | 0.00 | 0.00 | 81 | 1013.8 |
| 20260901121045 | 60 | 142 | 1.7 | 4.3 | 0.00 | 0.00 | 0.00 | 81 | 1013.8 |
| 20260901120546 | 60 | 266 | 1.7 | 4.3 | 0.00 | 0.00 | 0.00 | 80 | 1013.7 |
| 20260901120109 | 60 | 150 | 0.9 | 3.5 | 0.00 | 0.00 | 0.00 | 80 | 1013.8 |
| 20260901115545 | 61 | 226 | 0.9 | 7.0 | 0.00 | 0.00 | 0.00 | 80 | 1013.8 |
| 20260901115047 | 60 | 155 | 1.7 | 7.0 | 0.00 | 0.00 | 0.00 | 80 | 1013.9 |
| 20260901114604 | 60 | 150 | 2.6 | 6.1 | 0.00 | 0.00 | 0.00 | 80 | 1014.0 |
| 20260901114049 | 60 | 170 | 1.7 | 7.8 | 0.00 | 0.00 | 0.00 | 80 | 1014.0 |
| 20260901113545 | 60 | 179 | 2.6 | 7.8 | 0.00 | 0.00 | 0.00 | 79 | 1013.9 |
| 20260901113057 | 61 | 115 | 2.6 | 7.0 | 0.00 | 0.00 | 0.00 | 79 | 1014.0 |
| 20260901112546 | 61 | 145 | 3.5 | 6.1 | 0.00 | 0.00 | 0.00 | 78 | 1014.0 |
| 20260901112045 | 61 | 169 | 2.6 | 5.2 | 0.00 | 0.00 | 0.00 | 78 | 1014.1 |
| 20260901111559 | 61 | 210 | 1.7 | 6.1 | 0.00 | 0.00 | 0.00 | 78 | 1014.1 |
| 20260901111045 | 61 | 233 | 1.7 | 6.1 | 0.00 | 0.00 | 0.00 | 77 | 1014.1 |
| 20260901110544 | 61 | 160 | 0.9 | 5.2 | 0.00 | 0.00 | 0.00 | 77 | 1014.1 |
| 20260901105546 | 61 | 158 | 1.7 | 7.0 | 0.00 | 0.00 | 0.00 | 77 | 1014.0 |
| 20260901105045 | 61 | 180 | 2.6 | 7.0 | 0.00 | 0.00 | 0.00 | 77 | 1014.0 |
| 20260901104551 | 61 | 191 | 1.7 | 7.0 | 0.00 | 0.00 | 0.00 | 77 | 1013.9 |
| 20260901104049 | 61 | 145 | 1.7 | 7.0 | 0.00 | 0.00 | 0.00 | 77 | 1013.9 |
| 20260901103546 | 61 | 160 | 2.6 | 7.0 | 0.00 | 0.00 | 0.00 | 78 | 1013.7 |
| 20260901103102 | 60 | 132 | 2.6 | 6.1 | 0.00 | 0.00 | 0.00 | 78 | 1013.7 |
| 20260901102546 | 60 | 138 | 1.7 | 6.1 | 0.00 | 0.00 | 0.00 | 78 | 1013.8 |
| 20260901102043 | 60 | 181 | 1.7 | 6.1 | 0.00 | 0.00 | 0.00 | 78 | 1013.7 |
| 20260901101606 | 60 | 162 | 1.7 | 4.3 | 0.00 | 0.00 | 0.00 | 78 | 1013.8 |
| 20260901101046 | 60 | 250 | 1.7 | 4.3 | 0.00 | 0.00 | 0.00 | 78 | 1013.7 |
| 20260901100546 | 60 | 205 | 1.7 | 6.1 | 0.00 | 0.00 | 0.00 | 78 | 1013.6 |
| 20260901100100 | 60 | 230 | 1.7 | 6.1 | 0.00 | 0.00 | 0.00 | 78 | 1013.7 |
| 20260901095545 | 60 | 150 | 2.6 | 6.1 | 0.00 | 0.00 | 0.00 | 78 | 1013.7 |
| 20260901095048 | 61 | 186 | 1.7 | 9.6 | 0.00 | 0.00 | 0.00 | 77 | 1013.7 |
| 20260901094602 | 61 | 194 | 3.5 | 9.6 | 0.00 | 0.00 | 0.00 | 77 | 1013.7 |
| 20260901094047 | 61 | 151 | 3.5 | 7.8 | 0.00 | 0.00 | 0.00 | 76 | 1013.7 |
| 20260901093545 | 61 | 146 | 1.7 | 6.1 | 0.00 | 0.00 | 0.00 | 76 | 1013.9 |
| 20260901093105 | 61 | 134 | 2.6 | 5.2 | 0.00 | 0.00 | 0.00 | 76 | 1013.9 |
| 20260901092545 | 61 | 148 | 1.7 | 4.3 | 0.00 | 0.00 | 0.00 | 75 | 1013.9 |
| 20260901092046 | 61 | 225 | 0.9 | 4.3 | 0.00 | 0.00 | 0.00 | 76 | 1013.9 |
| 20260901091608 | 61 | 126 | 1.7 | 4.3 | 0.00 | 0.00 | 0.00 | 76 | 1014.0 |
| 20260901091046 | 61 | 230 | 1.7 | 5.2 | 0.00 | 0.00 | 0.00 | 76 | 1014.0 |
| 20260901090548 | 61 | 233 | 0.9 | 7.0 | 0.00 | 0.00 | 0.00 | 75 | 1014.1 |
| 20260901090104 | 61 | 239 | 1.7 | 7.0 | 0.00 | 0.00 | 0.00 | 75 | 1014.1 |
| 20260901085545 | 61 | 140 | 2.6 | 5.2 | 0.00 | 0.00 | 0.00 | 75 | 1014.0 |
| 20260901085046 | 61 | 226 | 0.9 | 4.3 | 0.00 | 0.00 | 0.00 | 75 | 1014.0 |
| 20260901084623 | 61 | 168 | 2.6 | 6.1 | 0.00 | 0.00 | 0.00 | 75 | 1014.1 |
| 20260901084045 | 61 | 195 | 1.7 | 6.1 | 0.00 | 0.00 | 0.00 | 75 | 1014.0 |
| 20260901083547 | 61 | 193 | 0.9 | 4.3 | 0.00 | 0.00 | 0.00 | 75 | 1014.1 |
| 20260901083103 | 61 | 212 | 1.7 | 4.3 | 0.00 | 0.00 | 0.00 | 75 | 1014.0 |
| 20260901082544 | 61 | 231 | 1.7 | 4.3 | 0.00 | 0.00 | 0.00 | 75 | 1014.0 |
| 20260901082045 | 61 | 200 | 0.9 | 5.2 | 0.00 | 0.00 | 0.00 | 75 | 1014.0 |
| 20260901081605 | 61 | 227 | 0.9 | 5.2 | 0.00 | 0.00 | 0.00 | 75 | 1013.9 |
| 20260901081045 | 61 | 248 | 0.9 | 6.1 | 0.00 | 0.00 | 0.00 | 75 | 1013.9 |
| 20260901080546 | 61 | 241 | 0.9 | 6.1 | 0.00 | 0.00 | 0.00 | 75 | 1013.8 |
| 20260901080115 | 61 | 151 | 1.7 | 3.5 | 0.00 | 0.00 | 0.00 | 75 | 1013.8 |
| 20260901075546 | 61 | 159 | 0.9 | 5.2 | 0.00 | 0.00 | 0.00 | 75 | 1013.9 |
| 20260901075045 | 61 | 198 | 1.7 | 6.1 | 0.00 | 0.00 | 0.00 | 75 | 1013.8 |
| 20260901074628 | 60 | 132 | 2.6 | 6.1 | 0.00 | 0.00 | 0.00 | 75 | 1013.7 |
| 20260901074049 | 61 | 146 | 0.9 | 6.1 | 0.00 | 0.00 | 0.00 | 74 | 1013.7 |
| 20260901073545 | 61 | 162 | 2.6 | 6.1 | 0.00 | 0.00 | 0.00 | 74 | 1013.7 |
| 20260901073105 | 61 | 233 | 1.7 | 5.2 | 0.00 | 0.00 | 0.00 | 74 | 1013.7 |
| 20260901072545 | 61 | 146 | 2.6 | 6.1 | 0.00 | 0.00 | 0.00 | 74 | 1013.8 |
| 20260901072048 | 61 | 146 | 2.6 | 7.0 | 0.00 | 0.00 | 0.00 | 74 | 1013.7 |
| 20260901071554 | 61 | 185 | 2.6 | 7.0 | 0.00 | 0.00 | 0.00 | 74 | 1013.7 |
| 20260901071045 | 60 | 148 | 2.6 | 7.0 | 0.00 | 0.00 | 0.00 | 74 | 1013.7 |
| 20260901070548 | 60 | 129 | 2.6 | 7.0 | 0.00 | 0.00 | 0.00 | 75 | 1013.8 |